owner,sensor,date,latitude,longitude,air_pressure(mBar),qcFlag 
TABS,ioos:station:wmo:42047:1,2010-03-01T00:00:00Z,27.8966,-93.5973,1013.01,11111222 
TABS,ioos:station:wmo:42047:1,2010-03-01T00:30:00Z,27.8966,-93.5973,1012.51,11111222 
TABS,ioos:station:wmo:42047:1,2010-03-01T01:00:00Z,27.8966,-93.5973,1011.76,11111222 
TABS,ioos:station:wmo:42047:1,2010-03-01T01:30:00Z,27.8966,-93.5973,1011.66,11111222 
TABS,ioos:station:wmo:42047:1,2010-03-01T02:00:00Z,27.8966,-93.5973,1011.5,11111222 
TABS,ioos:station:wmo:42047:1,2010-03-01T02:30:00Z,27.8966,-93.5973,1010.93,11111222 
TABS,ioos:station:wmo:42047:1,2010-03-01T03:00:00Z,27.8966,-93.5973,1011.33,11111222 
TABS,ioos:station:wmo:42047:1,2010-03-01T03:30:00Z,27.8966,-93.5973,1011.64,11111222 
TABS,ioos:station:wmo:42047:1,2010-03-01T04:00:00Z,27.8966,-93.5973,1011.11,11111222 
TABS,ioos:station:wmo:42047:1,2010-03-01T04:30:00Z,27.8966,-93.5973,1010.92,11111222 
TABS,ioos:station:wmo:42047:1,2010-03-01T05:00:00Z,27.8966,-93.5973,1010.7,11111222 
TABS,ioos:station:wmo:42047:1,2010-03-01T05:30:00Z,27.8966,-93.5973,1010.13,11111222 
TABS,ioos:station:wmo:42047:1,2010-03-01T06:00:00Z,27.8966,-93.5973,1010.18,11111222 
TABS,ioos:station:wmo:42047:1,2010-03-01T06:30:00Z,27.8966,-93.5973,1009.89,11111222 
TABS,ioos:station:wmo:42047:1,2010-03-01T07:00:00Z,27.8966,-93.5973,1009.04,11111222 
TABS,ioos:station:wmo:42047:1,2010-03-01T07:30:00Z,27.8966,-93.5973,1008.85,11111222 
TABS,ioos:station:wmo:42047:1,2010-03-01T08:00:00Z,27.8966,-93.5973,1008.71,11111222 
TABS,ioos:station:wmo:42047:1,2010-03-01T08:30:00Z,27.8966,-93.5973,1010.05,11111222 
TABS,ioos:station:wmo:42047:1,2010-03-01T09:00:00Z,27.8966,-93.5973,1011.34,11111222 
TABS,ioos:station:wmo:42047:1,2010-03-01T09:30:00Z,27.8966,-93.5973,1011.2,11111222 
TABS,ioos:station:wmo:42047:1,2010-03-01T10:00:00Z,27.8966,-93.5973,1011.21,11111222 
TABS,ioos:station:wmo:42047:1,2010-03-01T10:30:00Z,27.8966,-93.5973,1010.6,11111222 
TABS,ioos:station:wmo:42047:1,2010-03-01T11:00:00Z,27.8966,-93.5973,1010.06,11111222 
TABS,ioos:station:wmo:42047:1,2010-03-01T11:30:00Z,27.8966,-93.5973,1009.36,11111222 
TABS,ioos:station:wmo:42047:1,2010-03-01T12:00:00Z,27.8966,-93.5973,1009.14,11111222 
TABS,ioos:station:wmo:42047:1,2010-03-01T12:30:00Z,27.8966,-93.5973,1008.77,11111222 
TABS,ioos:station:wmo:42047:1,2010-03-01T13:00:00Z,27.8966,-93.5973,1007.29,11111222 
TABS,ioos:station:wmo:42047:1,2010-03-01T13:30:00Z,27.8966,-93.5973,1007.43,11111222 
TABS,ioos:station:wmo:42047:1,2010-03-01T14:00:00Z,27.8966,-93.5973,1007.06,11111222 
TABS,ioos:station:wmo:42047:1,2010-03-01T14:30:00Z,27.8966,-93.5973,1007.31,11111222 
TABS,ioos:station:wmo:42047:1,2010-03-01T15:00:00Z,27.8966,-93.5973,1006.63,11111222 
TABS,ioos:station:wmo:42047:1,2010-03-01T15:30:00Z,27.8966,-93.5973,1006.42,11111222 
TABS,ioos:station:wmo:42047:1,2010-03-01T16:00:00Z,27.8966,-93.5973,1006.84,11111222 
TABS,ioos:station:wmo:42047:1,2010-03-01T16:30:00Z,27.8966,-93.5973,1007.23,11111222 
TABS,ioos:station:wmo:42047:1,2010-03-01T17:00:00Z,27.8966,-93.5973,1006.82,11111222 
TABS,ioos:station:wmo:42047:1,2010-03-01T17:30:00Z,27.8966,-93.5973,1006.42,11111222 
TABS,ioos:station:wmo:42047:1,2010-03-01T18:00:00Z,27.8966,-93.5973,1005.74,11111222 
TABS,ioos:station:wmo:42047:1,2010-03-01T18:30:00Z,27.8966,-93.5973,1005.81,11111222 
TABS,ioos:station:wmo:42047:1,2010-03-01T19:00:00Z,27.8966,-93.5973,1005.73,11111222 
TABS,ioos:station:wmo:42047:1,2010-03-01T19:30:00Z,27.8966,-93.5973,1005.56,11111222 
TABS,ioos:station:wmo:42047:1,2010-03-01T20:00:00Z,27.8966,-93.5973,1005.63,11111222 
TABS,ioos:station:wmo:42047:1,2010-03-01T20:30:00Z,27.8966,-93.5973,1005.65,11111222 
TABS,ioos:station:wmo:42047:1,2010-03-01T21:00:00Z,27.8966,-93.5973,1005.77,11111222 
TABS,ioos:station:wmo:42047:1,2010-03-01T21:30:00Z,27.8966,-93.5973,1005.99,11111222 
TABS,ioos:station:wmo:42047:1,2010-03-01T22:00:00Z,27.8966,-93.5973,1005.98,11111222 
TABS,ioos:station:wmo:42047:1,2010-03-01T22:30:00Z,27.8966,-93.5973,1006.21,11111222 
TABS,ioos:station:wmo:42047:1,2010-03-01T23:00:00Z,27.8966,-93.5973,1007.1,11111222 
TABS,ioos:station:wmo:42047:1,2010-03-01T23:30:00Z,27.8966,-93.5973,1007.34,11111222 
TABS,ioos:station:wmo:42047:1,2010-03-02T00:00:00Z,27.8966,-93.5973,1007.72,11111222 
TABS,ioos:station:wmo:42047:1,2010-03-02T00:30:00Z,27.8966,-93.5973,1007.65,11111222 
TABS,ioos:station:wmo:42047:1,2010-03-02T01:00:00Z,27.8966,-93.5973,1008.39,11111222 
TABS,ioos:station:wmo:42047:1,2010-03-02T01:30:00Z,27.8966,-93.5973,1008.9,11111222 
TABS,ioos:station:wmo:42047:1,2010-03-02T02:00:00Z,27.8966,-93.5973,1009.75,11111222 
TABS,ioos:station:wmo:42047:1,2010-03-02T02:30:00Z,27.8966,-93.5973,1009.86,11111222 
TABS,ioos:station:wmo:42047:1,2010-03-02T03:00:00Z,27.8966,-93.5973,1010.15,11111222 
TABS,ioos:station:wmo:42047:1,2010-03-02T03:30:00Z,27.8966,-93.5973,1010.51,11111222 
TABS,ioos:station:wmo:42047:1,2010-03-02T04:00:00Z,27.8966,-93.5973,1010.33,11111222 
TABS,ioos:station:wmo:42047:1,2010-03-02T04:30:00Z,27.8966,-93.5973,1010.7,11111222 
TABS,ioos:station:wmo:42047:1,2010-03-02T05:00:00Z,27.8966,-93.5973,1011.19,11111222 
TABS,ioos:station:wmo:42047:1,2010-03-02T05:30:00Z,27.8966,-93.5973,1010.2,11111222 
TABS,ioos:station:wmo:42047:1,2010-03-02T06:00:00Z,27.8966,-93.5973,1010.86,11111222 
TABS,ioos:station:wmo:42047:1,2010-03-02T06:30:00Z,27.8966,-93.5973,1010.32,11111222 
TABS,ioos:station:wmo:42047:1,2010-03-02T07:00:00Z,27.8966,-93.5973,1010.91,11111222 
TABS,ioos:station:wmo:42047:1,2010-03-02T07:30:00Z,27.8966,-93.5973,1012.02,11111222 
TABS,ioos:station:wmo:42047:1,2010-03-02T08:00:00Z,27.8966,-93.5973,1012.51,11111222 
TABS,ioos:station:wmo:42047:1,2010-03-02T08:30:00Z,27.8966,-93.5973,1011.38,11111222 
TABS,ioos:station:wmo:42047:1,2010-03-02T09:00:00Z,27.8966,-93.5973,1011.38,11111222 
TABS,ioos:station:wmo:42047:1,2010-03-02T09:30:00Z,27.8966,-93.5973,1012.46,11111222 
TABS,ioos:station:wmo:42047:1,2010-03-02T10:00:00Z,27.8966,-93.5973,1012.38,11111222 
TABS,ioos:station:wmo:42047:1,2010-03-02T10:30:00Z,27.8966,-93.5973,1013.44,11111222 
TABS,ioos:station:wmo:42047:1,2010-03-02T11:00:00Z,27.8966,-93.5973,1013.42,11111222 
TABS,ioos:station:wmo:42047:1,2010-03-02T11:30:00Z,27.8966,-93.5973,1014.64,11111222 
TABS,ioos:station:wmo:42047:1,2010-03-02T12:00:00Z,27.8966,-93.5973,1014.59,11111222 
TABS,ioos:station:wmo:42047:1,2010-03-02T12:30:00Z,27.8966,-93.5973,1015.22,11111222 
TABS,ioos:station:wmo:42047:1,2010-03-02T13:00:00Z,27.8966,-93.5973,1016.26,11111222 
TABS,ioos:station:wmo:42047:1,2010-03-02T13:30:00Z,27.8966,-93.5973,1016.69,11111222 
TABS,ioos:station:wmo:42047:1,2010-03-02T14:00:00Z,27.8966,-93.5973,1017.07,11111222 
TABS,ioos:station:wmo:42047:1,2010-03-02T14:30:00Z,27.8966,-93.5973,1017.76,11111222 
TABS,ioos:station:wmo:42047:1,2010-03-02T15:00:00Z,27.8966,-93.5973,1018.53,11111222 
TABS,ioos:station:wmo:42047:1,2010-03-02T15:30:00Z,27.8966,-93.5973,1018.74,11111222 
TABS,ioos:station:wmo:42047:1,2010-03-02T16:00:00Z,27.8966,-93.5973,1018.73,11111222 
TABS,ioos:station:wmo:42047:1,2010-03-02T16:30:00Z,27.8966,-93.5973,1018.59,11111222 
TABS,ioos:station:wmo:42047:1,2010-03-02T17:00:00Z,27.8966,-93.5973,1019.29,11111222 
TABS,ioos:station:wmo:42047:1,2010-03-02T17:30:00Z,27.8966,-93.5973,1018.83,11111222 
TABS,ioos:station:wmo:42047:1,2010-03-02T18:00:00Z,27.8966,-93.5973,1018.28,11111222 
TABS,ioos:station:wmo:42047:1,2010-03-02T18:30:00Z,27.8966,-93.5973,1018.75,11111222 
TABS,ioos:station:wmo:42047:1,2010-03-02T19:00:00Z,27.8966,-93.5973,1018.01,11111222 
TABS,ioos:station:wmo:42047:1,2010-03-02T19:30:00Z,27.8966,-93.5973,1018.26,11111222 
TABS,ioos:station:wmo:42047:1,2010-03-02T20:00:00Z,27.8966,-93.5973,1017.87,11111222 
TABS,ioos:station:wmo:42047:1,2010-03-02T20:30:00Z,27.8966,-93.5973,1018.13,11111222 
TABS,ioos:station:wmo:42047:1,2010-03-02T21:00:00Z,27.8966,-93.5973,1017.8,11111222 
TABS,ioos:station:wmo:42047:1,2010-03-02T21:30:00Z,27.8966,-93.5973,1017.8,11111222 
TABS,ioos:station:wmo:42047:1,2010-03-02T22:00:00Z,27.8966,-93.5973,1017.94,11111222 
TABS,ioos:station:wmo:42047:1,2010-03-02T22:30:00Z,27.8966,-93.5973,1018.0,11111222 
TABS,ioos:station:wmo:42047:1,2010-03-02T23:00:00Z,27.8966,-93.5973,1018.07,11111222 
TABS,ioos:station:wmo:42047:1,2010-03-02T23:30:00Z,27.8966,-93.5973,1018.38,11111222 
TABS,ioos:station:wmo:42047:1,2010-03-03T00:00:00Z,27.8966,-93.5973,1018.54,11111222 
TABS,ioos:station:wmo:42047:1,2010-03-03T00:30:00Z,27.8966,-93.5973,1018.79,11111222 
TABS,ioos:station:wmo:42047:1,2010-03-03T01:00:00Z,27.8966,-93.5973,1018.68,11111222 
TABS,ioos:station:wmo:42047:1,2010-03-03T01:30:00Z,27.8966,-93.5973,1018.85,11111222 
TABS,ioos:station:wmo:42047:1,2010-03-03T02:00:00Z,27.8966,-93.5973,1019.13,11111222 
TABS,ioos:station:wmo:42047:1,2010-03-03T02:30:00Z,27.8966,-93.5973,1019.44,11111222 
TABS,ioos:station:wmo:42047:1,2010-03-03T03:00:00Z,27.8966,-93.5973,1019.87,11111222 
TABS,ioos:station:wmo:42047:1,2010-03-03T03:30:00Z,27.8966,-93.5973,1019.99,11111222 
TABS,ioos:station:wmo:42047:1,2010-03-03T04:00:00Z,27.8966,-93.5973,1020.15,11111222 
TABS,ioos:station:wmo:42047:1,2010-03-03T04:30:00Z,27.8966,-93.5973,1020.37,11111222 
TABS,ioos:station:wmo:42047:1,2010-03-03T05:00:00Z,27.8966,-93.5973,1020.13,11111222 
TABS,ioos:station:wmo:42047:1,2010-03-03T05:30:00Z,27.8966,-93.5973,1020.11,11111222 
TABS,ioos:station:wmo:42047:1,2010-03-03T06:00:00Z,27.8966,-93.5973,1019.79,11111222 
TABS,ioos:station:wmo:42047:1,2010-03-03T06:30:00Z,27.8966,-93.5973,1019.83,11111222 
TABS,ioos:station:wmo:42047:1,2010-03-03T07:00:00Z,27.8966,-93.5973,1019.65,11111222 
TABS,ioos:station:wmo:42047:1,2010-03-03T07:30:00Z,27.8966,-93.5973,1019.37,11111222 
TABS,ioos:station:wmo:42047:1,2010-03-03T08:00:00Z,27.8966,-93.5973,1019.68,11111222 
TABS,ioos:station:wmo:42047:1,2010-03-03T08:30:00Z,27.8966,-93.5973,1019.34,11111222 
TABS,ioos:station:wmo:42047:1,2010-03-03T09:00:00Z,27.8966,-93.5973,1019.22,11111222 
TABS,ioos:station:wmo:42047:1,2010-03-03T09:30:00Z,27.8966,-93.5973,1019.36,11111222 
TABS,ioos:station:wmo:42047:1,2010-03-03T10:00:00Z,27.8966,-93.5973,1019.45,11111222 
TABS,ioos:station:wmo:42047:1,2010-03-03T10:30:00Z,27.8966,-93.5973,1019.46,11111222 
TABS,ioos:station:wmo:42047:1,2010-03-03T11:00:00Z,27.8966,-93.5973,1019.5,11111222 
TABS,ioos:station:wmo:42047:1,2010-03-03T11:30:00Z,27.8966,-93.5973,1019.64,11111222 
TABS,ioos:station:wmo:42047:1,2010-03-03T12:00:00Z,27.8966,-93.5973,1019.93,11111222 
TABS,ioos:station:wmo:42047:1,2010-03-03T12:30:00Z,27.8966,-93.5973,1020.01,11111222 
TABS,ioos:station:wmo:42047:1,2010-03-03T13:00:00Z,27.8966,-93.5973,1020.57,11111222 
TABS,ioos:station:wmo:42047:1,2010-03-03T13:30:00Z,27.8966,-93.5973,1020.62,11111222 
TABS,ioos:station:wmo:42047:1,2010-03-03T14:00:00Z,27.8966,-93.5973,1020.95,11111222 
TABS,ioos:station:wmo:42047:1,2010-03-03T14:30:00Z,27.8966,-93.5973,1021.25,11111222 
TABS,ioos:station:wmo:42047:1,2010-03-03T15:00:00Z,27.8966,-93.5973,1021.47,11111222 
TABS,ioos:station:wmo:42047:1,2010-03-03T15:30:00Z,27.8966,-93.5973,1021.7,11111222 
TABS,ioos:station:wmo:42047:1,2010-03-03T16:00:00Z,27.8966,-93.5973,1021.89,11111222 
TABS,ioos:station:wmo:42047:1,2010-03-03T16:30:00Z,27.8966,-93.5973,1021.93,11111222 
TABS,ioos:station:wmo:42047:1,2010-03-03T17:00:00Z,27.8966,-93.5973,1022.03,11111222 
TABS,ioos:station:wmo:42047:1,2010-03-03T17:30:00Z,27.8966,-93.5973,1021.98,11111222 
TABS,ioos:station:wmo:42047:1,2010-03-03T18:00:00Z,27.8966,-93.5973,1021.93,11111222 
TABS,ioos:station:wmo:42047:1,2010-03-03T18:30:00Z,27.8966,-93.5973,1021.66,11111222 
TABS,ioos:station:wmo:42047:1,2010-03-03T19:00:00Z,27.8966,-93.5973,1021.25,11111222 
TABS,ioos:station:wmo:42047:1,2010-03-03T19:30:00Z,27.8966,-93.5973,1020.69,11111222 
TABS,ioos:station:wmo:42047:1,2010-03-03T20:00:00Z,27.8966,-93.5973,1020.62,11111222 
TABS,ioos:station:wmo:42047:1,2010-03-03T20:30:00Z,27.8966,-93.5973,1020.38,11111222 
TABS,ioos:station:wmo:42047:1,2010-03-03T21:00:00Z,27.8966,-93.5973,1020.23,11111222 
TABS,ioos:station:wmo:42047:1,2010-03-03T21:30:00Z,27.8966,-93.5973,1020.18,11111222 
TABS,ioos:station:wmo:42047:1,2010-03-03T22:00:00Z,27.8966,-93.5973,1020.03,11111222 
TABS,ioos:station:wmo:42047:1,2010-03-03T22:30:00Z,27.8966,-93.5973,1019.92,11111222 
TABS,ioos:station:wmo:42047:1,2010-03-03T23:00:00Z,27.8966,-93.5973,1019.92,11111222 
TABS,ioos:station:wmo:42047:1,2010-03-03T23:30:00Z,27.8966,-93.5973,1020.08,11111222 
TABS,ioos:station:wmo:42047:1,2010-03-04T00:00:00Z,27.8966,-93.5973,1020.05,11111222 
TABS,ioos:station:wmo:42047:1,2010-03-04T00:30:00Z,27.8966,-93.5973,1020.17,11111222 
TABS,ioos:station:wmo:42047:1,2010-03-04T01:00:00Z,27.8966,-93.5973,1020.26,11111222 
TABS,ioos:station:wmo:42047:1,2010-03-04T01:30:00Z,27.8966,-93.5973,1020.51,11111222 
TABS,ioos:station:wmo:42047:1,2010-03-04T02:00:00Z,27.8966,-93.5973,1020.8,11111222 
TABS,ioos:station:wmo:42047:1,2010-03-04T02:30:00Z,27.8966,-93.5973,1020.91,11111222 
TABS,ioos:station:wmo:42047:1,2010-03-04T03:00:00Z,27.8966,-93.5973,1021.03,11111222 
TABS,ioos:station:wmo:42047:1,2010-03-04T03:30:00Z,27.8966,-93.5973,1021.33,11111222 
TABS,ioos:station:wmo:42047:1,2010-03-04T04:00:00Z,27.8966,-93.5973,1021.38,11111222 
TABS,ioos:station:wmo:42047:1,2010-03-04T04:30:00Z,27.8966,-93.5973,1021.58,11111222 
TABS,ioos:station:wmo:42047:1,2010-03-04T05:00:00Z,27.8966,-93.5973,1021.52,11111222 
TABS,ioos:station:wmo:42047:1,2010-03-04T05:30:00Z,27.8966,-93.5973,1021.5,11111222 
TABS,ioos:station:wmo:42047:1,2010-03-04T06:00:00Z,27.8966,-93.5973,1021.32,11111222 
TABS,ioos:station:wmo:42047:1,2010-03-04T06:30:00Z,27.8966,-93.5973,1021.22,11111222 
TABS,ioos:station:wmo:42047:1,2010-03-04T07:00:00Z,27.8966,-93.5973,1021.09,11111222 
TABS,ioos:station:wmo:42047:1,2010-03-04T07:30:00Z,27.8966,-93.5973,1021.14,11111222 
TABS,ioos:station:wmo:42047:1,2010-03-04T08:00:00Z,27.8966,-93.5973,1021.18,11111222 
TABS,ioos:station:wmo:42047:1,2010-03-04T08:30:00Z,27.8966,-93.5973,1020.97,11111222 
TABS,ioos:station:wmo:42047:1,2010-03-04T09:00:00Z,27.8966,-93.5973,1020.95,11111222 
TABS,ioos:station:wmo:42047:1,2010-03-04T09:30:00Z,27.8966,-93.5973,1020.62,11111222 
TABS,ioos:station:wmo:42047:1,2010-03-04T10:00:00Z,27.8966,-93.5973,1020.77,11111222 
TABS,ioos:station:wmo:42047:1,2010-03-04T10:30:00Z,27.8966,-93.5973,1020.92,11111222 
TABS,ioos:station:wmo:42047:1,2010-03-04T11:00:00Z,27.8966,-93.5973,1021.24,11111222 
TABS,ioos:station:wmo:42047:1,2010-03-04T11:30:00Z,27.8966,-93.5973,1021.58,11111222 
TABS,ioos:station:wmo:42047:1,2010-03-04T12:00:00Z,27.8966,-93.5973,1022.02,11111222 
TABS,ioos:station:wmo:42047:1,2010-03-04T12:30:00Z,27.8966,-93.5973,1022.45,11111222 
TABS,ioos:station:wmo:42047:1,2010-03-04T13:00:00Z,27.8966,-93.5973,1022.88,11111222 
TABS,ioos:station:wmo:42047:1,2010-03-04T13:30:00Z,27.8966,-93.5973,1023.01,11111222 
TABS,ioos:station:wmo:42047:1,2010-03-04T14:00:00Z,27.8966,-93.5973,1023.26,11111222 
TABS,ioos:station:wmo:42047:1,2010-03-04T14:30:00Z,27.8966,-93.5973,1023.52,11111222 
TABS,ioos:station:wmo:42047:1,2010-03-04T15:00:00Z,27.8966,-93.5973,1023.77,11111222 
TABS,ioos:station:wmo:42047:1,2010-03-04T15:30:00Z,27.8966,-93.5973,1023.92,11111222 
TABS,ioos:station:wmo:42047:1,2010-03-04T16:00:00Z,27.8966,-93.5973,1023.87,11111222 
TABS,ioos:station:wmo:42047:1,2010-03-04T16:30:00Z,27.8966,-93.5973,1023.85,11111222 
TABS,ioos:station:wmo:42047:1,2010-03-04T17:00:00Z,27.8966,-93.5973,1023.97,11111222 
TABS,ioos:station:wmo:42047:1,2010-03-04T17:30:00Z,27.8966,-93.5973,1023.72,11111222 
TABS,ioos:station:wmo:42047:1,2010-03-04T18:00:00Z,27.8966,-93.5973,1023.32,11111222 
TABS,ioos:station:wmo:42047:1,2010-03-04T18:30:00Z,27.8966,-93.5973,1023.16,11111222 
TABS,ioos:station:wmo:42047:1,2010-03-04T19:00:00Z,27.8966,-93.5973,1022.74,11111222 
TABS,ioos:station:wmo:42047:1,2010-03-04T19:30:00Z,27.8966,-93.5973,1022.49,11111222 
TABS,ioos:station:wmo:42047:1,2010-03-04T20:00:00Z,27.8966,-93.5973,1021.72,11111222 
TABS,ioos:station:wmo:42047:1,2010-03-04T20:30:00Z,27.8966,-93.5973,1021.47,11111222 
TABS,ioos:station:wmo:42047:1,2010-03-04T21:00:00Z,27.8966,-93.5973,1021.93,11111222 
TABS,ioos:station:wmo:42047:1,2010-03-04T21:30:00Z,27.8966,-93.5973,1021.82,11111222 
TABS,ioos:station:wmo:42047:1,2010-03-04T22:00:00Z,27.8966,-93.5973,1022.03,11111222 
TABS,ioos:station:wmo:42047:1,2010-03-04T22:30:00Z,27.8966,-93.5973,1021.83,11111222 
TABS,ioos:station:wmo:42047:1,2010-03-04T23:00:00Z,27.8966,-93.5973,1021.63,11111222 
TABS,ioos:station:wmo:42047:1,2010-03-04T23:30:00Z,27.8966,-93.5973,1021.49,11111222 
TABS,ioos:station:wmo:42047:1,2010-03-05T00:00:00Z,27.8966,-93.5973,1022.03,11111222 
TABS,ioos:station:wmo:42047:1,2010-03-05T00:30:00Z,27.8966,-93.5973,1022.2,11111222 
TABS,ioos:station:wmo:42047:1,2010-03-05T01:00:00Z,27.8966,-93.5973,1022.07,11111222 
TABS,ioos:station:wmo:42047:1,2010-03-05T01:30:00Z,27.8966,-93.5973,1022.05,11111222 
TABS,ioos:station:wmo:42047:1,2010-03-05T02:00:00Z,27.8966,-93.5973,1022.17,11111222 
TABS,ioos:station:wmo:42047:1,2010-03-05T02:30:00Z,27.8966,-93.5973,1022.28,11111222 
TABS,ioos:station:wmo:42047:1,2010-03-05T03:00:00Z,27.8966,-93.5973,1022.5,11111222 
TABS,ioos:station:wmo:42047:1,2010-03-05T03:30:00Z,27.8966,-93.5973,1022.31,11111222 
TABS,ioos:station:wmo:42047:1,2010-03-05T04:00:00Z,27.8966,-93.5973,1022.35,11111222 
TABS,ioos:station:wmo:42047:1,2010-03-05T04:30:00Z,27.8966,-93.5973,1022.55,11111222 
TABS,ioos:station:wmo:42047:1,2010-03-05T05:00:00Z,27.8966,-93.5973,1022.2,11111222 
TABS,ioos:station:wmo:42047:1,2010-03-05T05:30:00Z,27.8966,-93.5973,1022.48,11111222 
TABS,ioos:station:wmo:42047:1,2010-03-05T06:00:00Z,27.8966,-93.5973,1021.53,11111222 
TABS,ioos:station:wmo:42047:1,2010-03-05T06:30:00Z,27.8966,-93.5973,1021.95,11111222 
TABS,ioos:station:wmo:42047:1,2010-03-05T07:00:00Z,27.8966,-93.5973,1021.66,11111222 
TABS,ioos:station:wmo:42047:1,2010-03-05T07:30:00Z,27.8966,-93.5973,1021.4,11111222 
TABS,ioos:station:wmo:42047:1,2010-03-05T08:00:00Z,27.8966,-93.5973,1021.42,11111222 
TABS,ioos:station:wmo:42047:1,2010-03-05T08:30:00Z,27.8966,-93.5973,1021.44,11111222 
TABS,ioos:station:wmo:42047:1,2010-03-05T09:00:00Z,27.8966,-93.5973,1021.32,11111222 
TABS,ioos:station:wmo:42047:1,2010-03-05T09:30:00Z,27.8966,-93.5973,1021.25,11111222 
TABS,ioos:station:wmo:42047:1,2010-03-05T10:00:00Z,27.8966,-93.5973,1021.02,11111222 
TABS,ioos:station:wmo:42047:1,2010-03-05T10:30:00Z,27.8966,-93.5973,1021.16,11111222 
TABS,ioos:station:wmo:42047:1,2010-03-05T11:00:00Z,27.8966,-93.5973,1021.29,11111222 
TABS,ioos:station:wmo:42047:1,2010-03-05T11:30:00Z,27.8966,-93.5973,1021.38,11111222 
TABS,ioos:station:wmo:42047:1,2010-03-05T12:00:00Z,27.8966,-93.5973,1021.42,11111222 
TABS,ioos:station:wmo:42047:1,2010-03-05T12:30:00Z,27.8966,-93.5973,1021.63,11111222 
TABS,ioos:station:wmo:42047:1,2010-03-05T13:00:00Z,27.8966,-93.5973,1022.02,11111222 
TABS,ioos:station:wmo:42047:1,2010-03-05T13:30:00Z,27.8966,-93.5973,1022.39,11111222 
TABS,ioos:station:wmo:42047:1,2010-03-05T14:00:00Z,27.8966,-93.5973,1021.87,11111222 
TABS,ioos:station:wmo:42047:1,2010-03-05T14:30:00Z,27.8966,-93.5973,1022.88,11111222 
TABS,ioos:station:wmo:42047:1,2010-03-05T15:00:00Z,27.8966,-93.5973,1023.1,11111222 
TABS,ioos:station:wmo:42047:1,2010-03-05T15:30:00Z,27.8966,-93.5973,1022.96,11111222 
TABS,ioos:station:wmo:42047:1,2010-03-05T16:00:00Z,27.8966,-93.5973,1023.52,11111222 
TABS,ioos:station:wmo:42047:1,2010-03-05T16:30:00Z,27.8966,-93.5973,1023.42,11111222 
TABS,ioos:station:wmo:42047:1,2010-03-05T17:00:00Z,27.8966,-93.5973,1023.0,11111222 
TABS,ioos:station:wmo:42047:1,2010-03-05T17:30:00Z,27.8966,-93.5973,1022.97,11111222 
TABS,ioos:station:wmo:42047:1,2010-03-05T18:00:00Z,27.8966,-93.5973,1022.91,11111222 
TABS,ioos:station:wmo:42047:1,2010-03-05T18:30:00Z,27.8966,-93.5973,1021.78,11111222 
TABS,ioos:station:wmo:42047:1,2010-03-05T19:00:00Z,27.8966,-93.5973,1021.6,11111222 
TABS,ioos:station:wmo:42047:1,2010-03-05T19:30:00Z,27.8966,-93.5973,1021.12,11111222 
TABS,ioos:station:wmo:42047:1,2010-03-05T20:00:00Z,27.8966,-93.5973,1021.27,11111222 
TABS,ioos:station:wmo:42047:1,2010-03-05T20:30:00Z,27.8966,-93.5973,1021.57,11111222 
TABS,ioos:station:wmo:42047:1,2010-03-05T21:00:00Z,27.8966,-93.5973,1021.25,11111222 
TABS,ioos:station:wmo:42047:1,2010-03-05T21:30:00Z,27.8966,-93.5973,1021.64,11111222 
TABS,ioos:station:wmo:42047:1,2010-03-05T22:00:00Z,27.8966,-93.5973,1020.96,11111222 
TABS,ioos:station:wmo:42047:1,2010-03-05T22:30:00Z,27.8966,-93.5973,1021.02,11111222 
TABS,ioos:station:wmo:42047:1,2010-03-05T23:00:00Z,27.8966,-93.5973,1020.91,11111222 
TABS,ioos:station:wmo:42047:1,2010-03-05T23:30:00Z,27.8966,-93.5973,1021.02,11111222 
TABS,ioos:station:wmo:42047:1,2010-03-06T00:00:00Z,27.8966,-93.5973,1021.09,11111222 
TABS,ioos:station:wmo:42047:1,2010-03-06T00:30:00Z,27.8966,-93.5973,1021.3,11111222 
TABS,ioos:station:wmo:42047:1,2010-03-06T01:00:00Z,27.8966,-93.5973,1021.23,11111222 
TABS,ioos:station:wmo:42047:1,2010-03-06T01:30:00Z,27.8966,-93.5973,1021.72,11111222 
TABS,ioos:station:wmo:42047:1,2010-03-06T02:00:00Z,27.8966,-93.5973,1021.87,11111222 
TABS,ioos:station:wmo:42047:1,2010-03-06T02:30:00Z,27.8966,-93.5973,1021.95,11111222 
TABS,ioos:station:wmo:42047:1,2010-03-06T03:00:00Z,27.8966,-93.5973,1021.97,11111222 
TABS,ioos:station:wmo:42047:1,2010-03-06T03:30:00Z,27.8966,-93.5973,1022.1,11111222 
TABS,ioos:station:wmo:42047:1,2010-03-06T04:00:00Z,27.8966,-93.5973,1022.7,11111222 
TABS,ioos:station:wmo:42047:1,2010-03-06T04:30:00Z,27.8966,-93.5973,1023.12,11111222 
TABS,ioos:station:wmo:42047:1,2010-03-06T05:00:00Z,27.8966,-93.5973,1023.01,11111222 
TABS,ioos:station:wmo:42047:1,2010-03-06T05:30:00Z,27.8966,-93.5973,1023.0,11111222 
TABS,ioos:station:wmo:42047:1,2010-03-06T06:00:00Z,27.8966,-93.5973,1022.89,11111222 
TABS,ioos:station:wmo:42047:1,2010-03-06T06:30:00Z,27.8966,-93.5973,1022.66,11111222 
TABS,ioos:station:wmo:42047:1,2010-03-06T07:00:00Z,27.8966,-93.5973,1022.62,11111222 
TABS,ioos:station:wmo:42047:1,2010-03-06T07:30:00Z,27.8966,-93.5973,1022.19,11111222 
TABS,ioos:station:wmo:42047:1,2010-03-06T08:00:00Z,27.8966,-93.5973,1022.15,11111222 
TABS,ioos:station:wmo:42047:1,2010-03-06T08:30:00Z,27.8966,-93.5973,1022.09,11111222 
TABS,ioos:station:wmo:42047:1,2010-03-06T09:00:00Z,27.8966,-93.5973,1022.22,11111222 
TABS,ioos:station:wmo:42047:1,2010-03-06T09:30:00Z,27.8966,-93.5973,1021.89,11111222 
TABS,ioos:station:wmo:42047:1,2010-03-06T10:00:00Z,27.8966,-93.5973,1022.1,11111222 
TABS,ioos:station:wmo:42047:1,2010-03-06T10:30:00Z,27.8966,-93.5973,1022.37,11111222 
TABS,ioos:station:wmo:42047:1,2010-03-06T11:00:00Z,27.8966,-93.5973,1022.16,11111222 
TABS,ioos:station:wmo:42047:1,2010-03-06T11:30:00Z,27.8966,-93.5973,1022.88,11111222 
TABS,ioos:station:wmo:42047:1,2010-03-06T12:00:00Z,27.8966,-93.5973,1023.03,11111222 
TABS,ioos:station:wmo:42047:1,2010-03-06T12:30:00Z,27.8966,-93.5973,1022.79,11111222 
TABS,ioos:station:wmo:42047:1,2010-03-06T13:00:00Z,27.8966,-93.5973,1023.67,11111222 
TABS,ioos:station:wmo:42047:1,2010-03-06T13:30:00Z,27.8966,-93.5973,1024.13,11111222 
TABS,ioos:station:wmo:42047:1,2010-03-06T14:00:00Z,27.8966,-93.5973,1024.21,11111222 
TABS,ioos:station:wmo:42047:1,2010-03-06T14:30:00Z,27.8966,-93.5973,1024.3,11111222 
TABS,ioos:station:wmo:42047:1,2010-03-06T15:00:00Z,27.8966,-93.5973,1024.6,11111222 
TABS,ioos:station:wmo:42047:1,2010-03-06T15:30:00Z,27.8966,-93.5973,1024.65,11111222 
TABS,ioos:station:wmo:42047:1,2010-03-06T16:00:00Z,27.8966,-93.5973,1024.78,11111222 
TABS,ioos:station:wmo:42047:1,2010-03-06T16:30:00Z,27.8966,-93.5973,1025.28,11111222 
TABS,ioos:station:wmo:42047:1,2010-03-06T17:00:00Z,27.8966,-93.5973,1025.01,11111222 
TABS,ioos:station:wmo:42047:1,2010-03-06T17:30:00Z,27.8966,-93.5973,1024.68,11111222 
TABS,ioos:station:wmo:42047:1,2010-03-06T18:00:00Z,27.8966,-93.5973,1024.56,11111222 
TABS,ioos:station:wmo:42047:1,2010-03-06T18:30:00Z,27.8966,-93.5973,1024.39,11111222 